User: anonymous
Location: Unspecified
(0.0000°N, 0.0000°E)
Time: 06:24:55
(UTC+02:00)
Language:

Cosmos 1833 Rocket - Orbit

View from above orbital plane
View from above orbital plane
View from above satellite
View from above satellite

Ground track
Ground track

The orbit data is extracted from the following two-line orbital elements,

1 17590U 87027B   14266.80546932 -.00000249  00000-0 -10054-3 0  7899
2 17590 071.0022 090.0903 0004989 357.9463 002.1640 14.16651358422869
Epoch (UTC): 23 September 2014 19:19:52
Eccentricity: 0.0004989
inclination: 71.0022°
perigee height: 833 km
apogee height: 840 km
right ascension of ascending node: 90.0903°
argument of perigee: 357.9463°
revolutions per day: 14.16651358
mean anomaly at epoch: 2.1640°
orbit number at epoch: 42286

The dashed part of the orbit path shows where the satellite is in the earth's shadow,  

DLR